Вернуться в каталог

COSMOS 1523

АктивенВоенныеLEO
NORAD 14612·PAYLOAD·🇷🇺 Russia

Запущен Jan 5, 1984 с Plesetsk Cosmodrome

Loading…

Ближайшие Пролёты (ближайшие 24 часа)

TLE

СвежийSource: Space-Track

Эпоха: Sep 14, 2026, 07:56 UTC

1 14612U 84001B   26257.33077634 -.00000014  00000-0  15498-4 0  9999
2 14612  74.0038 212.2558 0040878  76.7542  75.9325 12.58657828961505

Отслеживайте COSMOS 1523 в реальном времени с AllMySat

Download on the App Store